International Skating Union - Official Site

ISU World Cup Berlin
January 27 - 29, 2017

Draw | Lap Times | Index | World Cup

Referee: Bjørn  PETTERSEN  (NOR)
Starter: Kari  HAUTAMÄKI  (FIN)
StartTime: EndTime: Air Temp: Ice Temp: Humidity:
12:01 12:34 15.2℃ -5.8℃ 24%
Result 3000m Ladies Division B
Rankings as of Jan 29 2017 12:34PM
Rank: No.: Name: Nation: Time: Behind: Points:
1 264 Natalia  Czerwonka POL POL 4:07.97200m - 20.00 - (20.0)
600m - 51.28 - (31.2)
1000m - 1:22.74 - (31.4)
1400m - 1:54.54 - (31.8)
1800m - 2:26.88 - (32.3)
2200m - 2:59.72 - (32.8)
2600m - 3:33.42 - (33.6)
3000m - 4:07.97 - (34.5)
32
2 261 Ida  Njåtun NOR NOR 4:09.88200m - 19.99 - (19.9)
600m - 51.32 - (31.3)
1000m - 1:23.59 - (32.2)
1400m - 1:56.21 - (32.6)
1800m - 2:29.28 - (33.0)
2200m - 3:02.44 - (33.1)
2600m - 3:35.92 - (33.4)
3000m - 4:09.88 - (33.9)
1.91 27
3 206 Mei  Han CHN CHN 4:11.01200m - 20.11 - (20.1)
600m - 51.35 - (31.2)
1000m - 1:22.76 - (31.4)
1400m - 1:55.13 - (32.3)
1800m - 2:28.18 - (33.0)
2200m - 3:01.73 - (33.5)
2600m - 3:36.19 - (34.4)
3000m - 4:11.01 - (34.8)
3.04 23
4 263 Katarzyna  Bachleda-Curus POL POL 4:11.21200m - 20.37 - (20.3)
600m - 52.11 - (31.7)
1000m - 1:24.56 - (32.4)
1400m - 1:57.12 - (32.5)
1800m - 2:29.91 - (32.7)
2200m - 3:03.37 - (33.4)
2600m - 3:37.32 - (33.9)
3000m - 4:11.21 - (33.8)
3.24 19
5 266 Katarzyna  Wozniak POL POL 4:11.63200m - 20.76 - (20.7)
600m - 52.96 - (32.2)
1000m - 1:25.06 - (32.1)
1400m - 1:57.38 - (32.3)
1800m - 2:30.29 - (32.9)
2200m - 3:03.64 - (33.3)
2600m - 3:37.23 - (33.5)
3000m - 4:11.62 - (34.3)
3.66 15
6 267 Luiza  Zlotkowska POL POL 4:12.64200m - 20.47 - (20.4)
600m - 52.90 - (32.4)
1000m - 1:25.35 - (32.4)
1400m - 1:57.51 - (32.1)
1800m - 2:30.46 - (32.9)
2200m - 3:03.96 - (33.5)
2600m - 3:38.09 - (34.1)
3000m - 4:12.64 - (34.5)
4.67 11
7 234 Ayano  Sato JPN JPN 4:12.87200m - 20.30 - (20.3)
600m - 52.65 - (32.3)
1000m - 1:25.17 - (32.5)
1400m - 1:57.40 - (32.2)
1800m - 2:30.12 - (32.7)
2200m - 3:03.46 - (33.3)
2600m - 3:37.85 - (34.3)
3000m - 4:12.87 - (35.0)
4.90 9
8 220 Stephanie  Beckert GER GER 4:13.05200m - 21.93 - (21.9)
600m - 55.21 - (33.2)
1000m - 1:27.90 - (32.6)
1400m - 2:00.50 - (32.5)
1800m - 2:33.46 - (32.9)
2200m - 3:06.61 - (33.1)
2600m - 3:39.77 - (33.1)
3000m - 4:13.05 - (33.2)
5.08 7
9 237 Nana  Takagi JPN JPN 4:13.42200m - 20.59 - (20.5)
600m - 51.96 - (31.3)
1000m - 1:24.23 - (32.2)
1400m - 1:56.99 - (32.7)
1800m - 2:30.20 - (33.2)
2200m - 3:03.98 - (33.7)
2600m - 3:38.44 - (34.4)
3000m - 4:13.42 - (34.9)
5.45 6
10 232 Fuyo  Matsuoka JPN JPN 4:13.62200m - 20.90 - (20.8)
600m - 52.99 - (32.0)
1000m - 1:25.27 - (32.2)
1400m - 1:58.38 - (33.1)
1800m - 2:31.87 - (33.4)
2200m - 3:05.44 - (33.5)
2600m - 3:39.09 - (33.6)
3000m - 4:13.62 - (34.5)
5.65 5
11 216 Nikola  Zdráhalova CZE CZE 4:13.77200m - 19.88 - (19.8)
600m - 51.31 - (31.4)
1000m - 1:23.36 - (32.0)
1400m - 1:56.56 - (33.2)
1800m - 2:30.10 - (33.5)
2200m - 3:03.93 - (33.8)
2600m - 3:38.39 - (34.4)
3000m - 4:13.77 - (35.3)
5.80 4
12 235 Maki  Tabata JPN JPN 4:13.81200m - 20.85 - (20.8)
600m - 52.76 - (31.9)
1000m - 1:25.44 - (32.6)
1400m - 1:58.88 - (33.4)
1800m - 2:32.58 - (33.7)
2200m - 3:06.22 - (33.6)
2600m - 3:39.89 - (33.6)
3000m - 4:13.81 - (33.9)
5.84 3
13 265 Magdalena  Czyszczon POL POL 4:15.00200m - 21.37 - (21.3)
600m - 53.38 - (32.0)
1000m - 1:25.45 - (32.0)
1400m - 1:58.41 - (32.9)
1800m - 2:31.67 - (33.2)
2200m - 3:05.41 - (33.7)
2600m - 3:40.11 - (34.7)
3000m - 4:15.00 - (34.8)
7.03 2
14 258 Sofie Karoline  Haugen NOR NOR 4:15.01200m - 20.69 - (20.6)
600m - 52.10 - (31.4)
1000m - 1:25.00 - (32.8)
1400m - 1:57.68 - (32.6)
1800m - 2:30.51 - (32.8)
2200m - 3:03.87 - (33.3)
2600m - 3:38.75 - (34.8)
3000m - 4:15.01 - (36.2)
7.04 1
15 283 Carlijn  Schoutens USA USA 4:16.13200m - 20.79 - (20.7)
600m - 52.57 - (31.7)
1000m - 1:25.56 - (32.9)
1400m - 1:59.41 - (33.8)
1800m - 2:32.93 - (33.5)
2200m - 3:07.06 - (34.1)
2600m - 3:41.33 - (34.2)
3000m - 4:16.13 - (34.7)
8.16 0
16 218 Saskia  Alusalu EST EST 4:16.83200m - 20.83 - (20.8)
600m - 52.77 - (31.9)
1000m - 1:25.51 - (32.7)
1400m - 1:58.68 - (33.1)
1800m - 2:32.25 - (33.5)
2200m - 3:06.56 - (34.3)
2600m - 3:41.50 - (34.9)
3000m - 4:16.83 - (35.3)
8.86 0
17 275 Elizaveta  Kazelina RUS RUS 4:17.32200m - 20.17 - (20.1)
600m - 51.31 - (31.1)
1000m - 1:24.30 - (32.9)
1400m - 1:58.19 - (33.8)
1800m - 2:32.65 - (34.4)
2200m - 3:07.50 - (34.8)
2600m - 3:42.55 - (35.0)
3000m - 4:17.32 - (34.7)
9.35 0
18 260 Camilla  Lund NOR NOR 4:18.29200m - 21.26 - (21.2)
600m - 53.65 - (32.3)
1000m - 1:26.95 - (33.3)
1400m - 2:00.46 - (33.5)
1800m - 2:34.31 - (33.8)
2200m - 3:08.82 - (34.5)
2600m - 3:43.60 - (34.7)
3000m - 4:18.29 - (34.6)
10.32 0
19 212 Eliska  Drimalova CZE CZE 4:27.10200m - 21.56 - (21.5)
600m - 55.03 - (33.4)
1000m - 1:29.76 - (34.7)
1400m - 2:04.18 - (34.4)
1800m - 2:39.46 - (35.2)
2200m - 3:14.73 - (35.2)
2600m - 3:50.66 - (35.9)
3000m - 4:27.10 - (36.4)
19.13 0
20 282 Briana  Kramer USA USA 4:30.64200m - 21.90 - (21.8)
600m - 55.30 - (33.3)
1000m - 1:29.27 - (33.9)
1400m - 2:03.91 - (34.6)
1800m - 2:39.00 - (35.0)
2200m - 3:15.29 - (36.2)
2600m - 3:52.47 - (37.1)
3000m - 4:30.64 - (38.1)
22.67 0
21 210 Dongxue  Xi CHN CHN 4:36.61200m - 21.48 - (21.4)
600m - 55.44 - (33.9)
1000m - 1:30.69 - (35.2)
1400m - 2:06.68 - (35.9)
1800m - 2:43.34 - (36.6)
2200m - 3:20.75 - (37.4)
2600m - 3:58.41 - (37.6)
3000m - 4:36.61 - (38.2)
28.64 0
22 256 Ellen  Bjertnes NOR NOR WDR 0